Regional Weather Roundup
Issued by NWS

Home | Current Version | Previous Version | Text Only | Print | Product List | Glossary Off
Versions: 1 2 3 4 5 6 7 8 9 10 11 12 13 14 15 16 17 18 19 20 21 22 23 24 25 26 27 28 29 30 31 32 33 34 35 36 37 38 39 40 41 42 43 44 45 46 47 48 49 50

000
ASUS43 KMKX 191421
RWRWI

WISCONSIN REGIONAL WEATHER ROUNDUP
NATIONAL WEATHER SERVICE MILWAUKEE/SULLIVAN WI
800 AM CST SUN NOV 19 2017

NOTE: "FAIR" INDICATES FEW OR NO CLOUDS BELOW 12,000 FEET WITH NO
SIGNIFICANT WEATHER AND/OR OBSTRUCTIONS TO VISIBILITY.

WIZ001-002-006>008-014>016-023>028-191500-
NORTHWEST WISCONSIN

CITY           SKY/WX    TMP DP  RH WIND       PRES   REMARKS
SUPERIOR ARPT  PTCLDY    15  10  81 SW7       30.02S WCI   5
ASHLAND        PTCLDY    14   8  77 SW12      29.99R WCI   0
HAYWARD        CLEAR     13   8  81 VRB3      29.99R
SIREN          CLEAR     15  10  80 W6        30.03S WCI   7
CUMBERLAND     CLEAR     16  10  79 W8        30.01R WCI   5
RICE LAKE      CLEAR     17  12  82 W9        30.03S WCI   5
CHETEK         CLEAR     15  11  82 W6        30.03R WCI   7
LADYSMITH      CLEAR     17  11  78 W9        30.01R WCI   5
EAU CLAIRE     CLEAR     17  11  77 W8        30.04R WCI   7
MENOMONIE      CLEAR     19  11  71 W12       30.06R WCI   7
NEW RICHMOND   PTCLDY    16  10  77 W8        30.06R WCI   5
OSCEOLA        PTCLDY    17  11  78 W6        30.09S WCI   9
$$

WIZ003>005-009-010-017-018-191500-
NORTH CENTRAL WISCONSIN

CITY           SKY/WX    TMP DP  RH WIND       PRES   REMARKS
MANITOWISH WTR FLURRIES  13   9  85 W10G16    29.90R WCI   0
ARBOR VITAE    LGT SNOW  17  12  82 NW3       29.90R
WOODRUFF       LGT SNOW  17  12  82 NW3       29.90R
RHINELANDER    CLOUDY   N/A N/A N/A VRB7      29.90S
EAGLE RIVER    FLURRIES  16   9  75 W7G17     29.88R WCI   6
LAND O LAKES   LGT SNOW  17  13  84 W8        29.88S WCI   6
PHILLIPS       FLURRIES  13   8  82 NW6       29.94S WCI   4
TOMAHAWK       PTCLDY    14   9  80 W9        29.94R WCI   2
MEDFORD        CLEAR     15   9  78 W10       29.95R WCI   2
MERRILL        FLURRIES  17  10  74 W9        29.96R WCI   6
$$

WIZ029-030-035-036-043>047-191500-
CENTRAL WISCONSIN

CITY           SKY/WX    TMP DP  RH WIND       PRES   REMARKS
WAUSAU         PTCLDY    18  10  71 NW13      29.95R WCI   5
MOSINEE        MOCLDY    18  12  79 W16       29.96R WCI   3
MARSHFIELD     CLEAR     17   9  70 W13       29.97R WCI   4
STEVENS POINT  PTCLDY    18  10  69 W9G16     29.98R WCI   7
WAUPACA        MOCLDY    24  13  63 W8        29.98R WCI  15
WAUTOMA        MOCLDY    22  13  68 NW12      30.00R WCI  10
WISC RAPIDS    PTCLDY    19  10  68 NW9       30.00R WCI   8
CAMP DOUGLAS   PTCLDY    21  10  63 W9        30.04R WCI  11
$$

WIZ011>013-019>022-031-037>040-048>050-191500-
NORTHEAST WISCONSIN

CITY           SKY/WX    TMP DP  RH WIND       PRES   REMARKS
ANTIGO         MOCLDY    17  10  74 NW13      29.91R WCI   4
SHAWANO        CLOUDY    25  13  61 NW8       29.95R WCI  16
OCONTO         CLOUDY    25  12  58 W9G16     29.94R WCI  15
STURGEON BAY   PTCLDY    25  13  60 NW17G24   29.92R WCI  12
GREEN BAY      CLOUDY    26  17  68 W16       29.94R WCI  14
MANITOWOC      CLOUDY    27  16  63 NW16G22   29.94R WCI  15
APPLETON       MOCLDY    21  10  63 W15       29.93R WCI   8
CLINTONVILLE   PTCLDY    21   9  58 NW10      29.96R WCI  10
OSHKOSH        CLOUDY    24  14  65 W16       29.95R WCI  11
$$

WIZ032>034-041-042-053>061-191500-
SOUTHWEST WISCONSIN

CITY           SKY/WX    TMP DP  RH WIND       PRES   REMARKS
LA CROSSE      PTCLDY    22  12  65 W10       30.08R WCI  11
SPARTA         CLEAR     19  13  76 W5        30.06R WCI  12
VIROQUA        PTCLDY    20  15  81 W9        30.04R WCI   9
BOSCOBEL       CLEAR     23  12  62 W6        30.09R WCI  16
PRAIRIE DU CHI CLEAR     22  12  67 W8        30.10R WCI  12
PLATTEVILLE    CLEAR     22  17  81 W9        30.06R WCI  12
$$

WIZ056-057-062-063-064-067-068-191500-
SOUTH CENTRAL WISCONSIN

CITY           SKY/WX    TMP DP  RH WIND       PRES   REMARKS
REEDSBURG      PTCLDY    19  11  70 W14       30.03R WCI   6
BARABOO/DELLS  PTCLDY    20  12  71 NW9       30.02R WCI   9
LONE ROCK      CLEAR     22  13  68 W13       30.06R WCI  10
MINERAL POINT  PTCLDY    23  18  80 NW12G18   30.03R WCI  12
MADISON        PTCLDY    22  14  71 NW12G21   30.01R WCI  10
MIDDLETON      PTCLDY    24  17  74 W12       30.02R WCI  13
WATERTOWN      MOCLDY    23  16  75 NW8       29.99R WCI  14
MONROE         PTCLDY    23  14  68 W16G22    30.02R WCI  10
JANESVILLE     MOCLDY    27  19  74 NW13      30.00R WCI  16
$$

WIZ051-052-058>065-066-070>072-191500-
SOUTHEAST WISCONSIN

CITY           SKY/WX    TMP DP  RH WIND       PRES   REMARKS
MILWAUKEE      PTSUNNY   29  16  58 NW13      29.98R WCI  19
WAUKESHA       CLEAR     23  14  68 W17G23    29.98R WCI   9
MILWAUKEE/TIMM MOCLDY    27  12  54 W12       29.97R WCI  16
RACINE         SUNNY     28  16  60 W14G28    29.99R WCI  17
BURLINGTON     CLEAR     28  21  75 NW14      29.99R WCI  17
KENOSHA        SUNNY     28  17  63 NW9G21    29.98R WCI  19
FOND DU LAC    CLOUDY    24  13  62 W10       29.97R WCI  14
SHEBOYGAN      CLOUDY    27  18  69 NW17      29.94R WCI  14
WEST BEND      CLOUDY    27  18  69 W15       29.95S WCI  15
JUNEAU         PTCLDY    22  14  72 NW8       29.99R WCI  12
$$

LSZ147-162-191500-
LAKE SUPERIOR

STATION/POSITION TIME  TEMP    WIND        PRES    WAVE
                       AIR SEA DIR/SP/G            HT/PER
                 (UTC) (F)     (DEG/KT/KT) (MB)    (FT/S)
DEVILS ISLAND    1400   19     290/ 19/ 23 1015.6R
SAXON HARBOR     1330   18     210/  8/ 11 1014.9R
$$

LMZ867-665-643>646-191500-
LAKE MICHIGAN

STATION/POSITION TIME  TEMP    WIND        PRES    WAVE
                       AIR SEA DIR/SP/G            HT/PER
                 (UTC) (F)     (DEG/KT/KT) (MB)    (FT/S)
N MID LAKE BUOY  1350   29 48  310/ 21/ 27 1011.8R   4/ 5
NORTHPORT PIER   1410   28     300/ 16     1012.2R
SHEBOYGAN LAKESH 1400   27     290/ 16/ 18 1014.6R
PORT WASHINGTON  1340   27     310/  6/ 12 1015.6R
MILWAUKEE LAKESH 1350   28     280/ 11/ 15   N/A
S MID LAKE BUOY  1350   33 49  330/ 21/ 27 1014.2R   6/ 7
KENOSHA   LAKESH 1400   28     290/ 15/ 19 1015.2
$$

TC  - TEMPERATURE IN CELSIUS
VSB - VISIBILITY IN STATUTE MILES
WCI - WIND CHILL INDEX
HX  - HEAT INDEX




USA.gov is the U.S. government's official web portal to all federal, state and local government web resources and services.